Location: Ernez
(36.4595°N, 29.8755°E)
Time: 08:18:48
(UTC+00:00)

CORIOLIS - Pass Details

Date: 13 November 2025
Orbit: 815 x 836 km, 98.7° (Epoch: 04 December)

Event Time Altitude Azimuth Distance (km) Brightness Sun altitude
Rises 15:22:53 0° 163° (SSE) 3,354 7.3 -6.4°
Reaches altitude 10° 15:25:14 10° 163° (SSE) 2,421 6.6 -6.9°
Maximum altitude 15:30:36 84° 75° (ENE) 832 4.1 -7.9°
Drops below altitude 10° 15:35:58 10° 348° (NNW) 2,422 6.6 -8.9°
Sets 15:38:19 0° 348° (NNW) 3,356 7.3 -9.4°
